Regional Weather Roundup
Issued by NWS Grand Forks, ND

Home | Current Version | Previous Version | Graphics & Text | Print | Product List | Glossary On
Versions: 1 2 3 4 5 6 7 8 9 10 11 12 13 14 15 16 17 18 19 20 21 22 23 24 25 26 27 28 29 30 31 32 33 34 35 36 37 38 39 40 41 42 43 44 45 46 47 48 49 50
000
ASUS43 KFGF 192010
RWRFGF
PRAIRIE TO PINES  WEATHER ROUNDUP
NATIONAL WEATHER SERVICE EASTERN NORTH DAKOTA/GRAND FORKS ND
200 PM CST SUN NOV 19 2017

 **SATELLITE DATA USED TO AUGMENT SKY COVER AT AUTOMATED STATIONS**
 *****  WEATHER ACROSS EASTERN NORTH DAKOTA  *****

CITY           SKY/WX    TMP DP  RH WIND       PRES   REMARKS
GRAND FORKS    FAIR      33  25  72 SW7       29.80F
GRAND FRKS AFB FAIR      35  24  63 W6        29.80F
GRAND FRKS NWS   N/A     32 N/A N/A W9          N/A  WCI  24
DEVILS LAKE    FAIR      34  25  69 W10       29.79S
FARGO          FAIR      45  25  45 SW14      29.81F
WAHPETON ARPT  NOT AVBL
$$

 ***** WEATHER ACROSS CENTRAL AND WESTERN NORTH DAKOTA  *****

CITY           SKY/WX    TMP DP  RH WIND       PRES   REMARKS
BISMARCK       FAIR      48  27  44 CALM      29.81F
MINOT          FAIR      40  25  55 N5        29.77S
JAMESTOWN      FAIR      43  26  51 W9        29.78F
MINOT AFB      FAIR      37  24  58 NW5       29.76S
GARRISON         N/A     40  25  55 W14       29.78F
WILLISTON      FAIR      44  24  45 SW9       29.77F
DICKINSON      FAIR      44  20  38 W9        29.78F
HETTINGER      FAIR      44  19  36 W12       29.83F
$$

 *****  OTHER AIRPORT OBSERVATIONS IN OUR AREA  *****

CITY           SKY/WX    TMP DP  RH WIND       PRES   REMARKS
WALHALLA       FAIR      27  19  74 N6        29.80S WCI  20
GRAFTON AIRPOR NOT AVBL
VALLEY CITY AR NOT AVBL
CANDO          FAIR      37  25  60 W8        29.79R
CAVALIER APRT  FAIR      25  18  74 CALM      29.81R
GWINNER          N/A     46  27  46 SW15G21   29.80F
SHEYENNE NWR     N/A     46  25  44 W8        29.95S
ROLLA          FAIR      34  25  69 N6        29.75S
 ***** THE ABOVE OBSERVATIONS ARE NON NWS ARE NOT QUALITY
       CONTROLLED AND MAY MIS-REPORT RAIN FOR SNOW...
$$

  *****  WEATHER ACROSS NORTHERN MINNESOTA  *****

CITY           SKY/WX    TMP DP  RH WIND       PRES   REMARKS
FLAG ISLAND    CLOUDY    21  12  68 SE7       29.82S WCI  13
WARROAD        FAIR      25  16  68 CALM      29.83S
ROSEAU         FAIR      27  18  69 CALM      29.82S
HALLOCK        FAIR      25  19  80 S6        29.81F WCI  18
THF RVR FALLS  FAIR      32  22  66 SW9       29.80F WCI  24
BAUDETTE       CLOUDY    20  12  71 S3        29.82S
WASKISH        CLOUDY    25  14  63 SE3       29.82F
CROOKSTON      FAIR      36  25  64 SW8       29.81F
STEPHEN NDAWN    N/A     27  19  74 S6          N/A  WCI  20
GREENBUSH NDAW   N/A     28  19  69 S5          N/A  WCI  23
$$
  *****  WEATHER ACROSS CENTRAL AND WEST MINNESOTA  *****

CITY           SKY/WX    TMP DP  RH WIND       PRES   REMARKS
FOSSTON        FAIR      36  25  64 SW10      29.81S
BEMIDJI        FAIR      30  18  59 S3        29.81F
PARK RAPIDS    FAIR      38  22  52 SW8       29.80F
ELBOW LAKE     FAIR      42  28  56 SW10      29.84F
WADENA         FAIR      37  23  56 SW10      29.82F
DETROIT LAKES  FAIR      37  27  65 SW8       29.81F
MOORHEAD       FAIR      43  23  45 SW9       29.82F
FERGUS FALLS   FAIR      43  25  49 SW10      29.85F
MORRIS MN      FAIR      46  27  46 W15       29.84F
STAPLES        FAIR      37  21  52 SW7       29.83F
$$
  *****  WEATHER ELSEWHERE ACROSS MINNESOTA  *****

CITY           SKY/WX    TMP DP  RH WIND       PRES   REMARKS
DULUTH         CLOUDY    22  13  68 W8        29.86F WCI  12
INTRNTL FALLS  PTSUNNY   20  10  65 SW3       29.83F
ELY            FAIR      19   9  63 W9        29.83F WCI   9
CLOQUET        PTSUNNY   25  12  58 S5        29.87F WCI  19
WHEATON        FAIR      48  21  34 SW15      29.85F
BRAINERD       FAIR      36  19  50 S10       29.85F
HIBBING        CLOUDY    19  12  74 CALM      29.84F
ALEXANDRIA     FAIR      42  25  50 SW13      29.85F
SAINT CLOUD    FAIR      39  23  52 S13       29.89F
MINNEAPOLIS    FAIR      38  21  50 SW9       29.94F
$$

  *****  WEATHER ACROSS SOUTH DAKOTA  *****

CITY           SKY/WX    TMP DP  RH WIND       PRES   REMARKS
SIOUX FALLS    FAIR      52  25  35 SW12G18   29.93F
BROOKINGS      FAIR      49  23  36 SW16      29.90F
WATERTOWN      FAIR      47  24  40 SW18G25   29.86F
HURON          FAIR      53  20  27 SW14      29.88F
SISSETON         N/A     50  23  34 SW18      29.82F
ABERDEEN       FAIR      51  23  33 W8        29.85F
MITCHELL       FAIR      53  24  32 SW10      29.91F
PIERRE         FAIR      52  24  33 SW10      29.85F
MOBRIDGE       FAIR      49  23  36 NW6       29.81F
RAPID CITY     FAIR      54  18  24 S6        29.87F
$$

  *****  SOME WEATHER IN NEARBY STATES *****

CITY           SKY/WX    TMP DP  RH WIND       PRES   REMARKS
GLASGOW MT     FAIR      43  28  55 SE8       29.71F
GREAT FALLS MT FAIR      47   8  20 SW35G45   29.76F
CHEYENNE WY    FAIR      52   4  14 W28G40    30.04F
SCOTTSBLUFF NE FAIR      56   6  13 W21G31    29.97F
OMAHA NE       FAIR      52  28  39 S14       30.06F
DES MOINES IA  FAIR      47  24  40 SW14      30.07F
DAVENPORT IA   FAIR      35  17  47 W9        30.13F
CHICAGO IL     FAIR      35  16  45 NW15      30.03S
EAU CLAIRE WI  FAIR      32  14  47 W6        29.95F
LA CROSSE WI   FAIR      36  15  42 SW8       30.01F
$$

  *****  SOME NATIONAL WEATHER *****

CITY           SKY/WX    TMP DP  RH WIND       PRES   REMARKS
LA GUARDIA NY  PTSUNNY   49  32  52 NW20G35   29.56R
RALEIGH NC     FAIR      58  29  33 NW7       29.82R
ATLANTA GA     FAIR      54  33  45 NW16G25   30.01S
NEW ORLEANS LA FAIR      63  34  33 N14G21    30.14F
OKLAHOMA CITY  FAIR      58  20  22 S8        30.24F
ALBUQUERQUE NM PTSUNNY   51   9  18 CALM      30.25F
SALT LAKE CITY FAIR      46  22  38 VRB3      30.19F
LOS ANGELES CA PTSUNNY   72  43  35 W12       30.02F
BOISE ID       FAIR      45  25  45 E5        30.13F
SEATTLE WA     CLOUDY    50  35  56 S6        29.82F
$$

*** WEATHER ACROSS MANITOBA...SASKATCHEWAN AND ONTARIO ***
                ***ONTARIO***

CITY           SKY/WX    TMP DP  RH WIND       PRES   REMARKS
GERALDTON      LGT SNOW  12   5  73 W6        29.72F WCI   3
THUNDER BAY    MOSUNNY   21  10  63 W12G21    29.82S WCI   9
SIOUX LOOKOUT  FLURRIES  12   5  73 W6        29.78F WCI   3
TORONTO        PTSUNNY   37  27  65 NW23G31   29.67R
BIG TROUT LK   FLURRIES  12   7  79 W13G18    29.63F WCI  -3
PICKLE LAKE    FLURRIES  14   7  73 W14G22    29.68R WCI  -1
DRYDEN         CLOUDY    16   7  67 W10       29.78F WCI   3
KENORA         PTSUNNY   16   9  73 VRB2      29.79F
$$
                *** MANITOBA***

CITY           SKY/WX    TMP DP  RH WIND       PRES   REMARKS
BRANDON        MOSUNNY   19  12  73 VRB5      29.77F WCI  13
DAUPHIN        SUNNY     19  12  73 NE7       29.79F WCI  10
ISLAND LAKE    PTSUNNY    7   0  72 W12       29.72F WCI  -9
PILOT MOUND      N/A     27  19  74 N5          N/A  WCI  21
THE PAS        MOSUNNY    9   1  72 W9        29.79F WCI  -5
THOMPSON       FLURRIES   9   1  72 W10G17    29.70S WCI  -6
WINNIPEG       MOSUNNY   23  10  58 N3        29.83F
LYNN LAKE      FLURRIES   5   1  85 NW8       29.71S WCI  -8
CHURCHILL      LGT SNOW  14  12  92 NW21G26   29.49R VSB 1   WCI  -4
$$
                ***SASKATCHEWAN***

CITY           SKY/WX    TMP DP  RH WIND       PRES   REMARKS
ESTEVAN        CLOUDY    34  23  64 SW8       29.73F
KINDERSLEY     CLOUDY    25  19  80 SW8       29.48F WCI  16
LLOYDMINSTER   CLOUDY    14  10  85 E15       29.44F WCI  -1
PRINCE ALBERT  PTSUNNY   12   7  79 E8        29.69F WCI   1
REGINA         PTSUNNY   21  18  86 SE13      29.64F WCI   9
YORKTON        SUNNY     16  10  79 E6        29.72F WCI   7
N. BATTLEFORD  SUNNY     12   7  79 SE14G22   29.56F WCI  -3
LA RONGE       FLURRIES  12   7  79 E6        29.73F WCI   3
SASKATOON      PTSUNNY   18  10  73 E12       29.61F WCI   5
SWIFT CURRENT  SUNNY     36  25  64 SW18      29.53F
$$
NOTE: THESE ARE AUTOMATED STATIONS WITH LIMITED QUALITY CONTROL
      "FAIR" INDICATES FEW OR NO CLOUDS BELOW 12,000 FEET WITH NO
      SIGNIFICANT WEATHER AND/OR OBSTRUCTIONS TO VISIBILITY.
      SKY/WX - SKY CONDITION AND SIGNIFICANT WEATHER.
      TMP - AIR TEMPERATURE.    DP   - DEWPOINT TEMPERATURE.
      RH  - RELATIVE HUMIDITY.  PRES - PRESSURE.
      HX  - HEAT INDEX.         WCI  - WIND CHILL INDEX.
$



USA.gov is the U.S. government's official web portal to all federal, state and local government web resources and services.